[[{"header":{"parameterUnit":"m.s-1","parameterCategory":1,"la1":30.2991,"la2":30.254,"lo1":-89.0895,"lo2":-89.0444,"dy":0.0017,"dx":0.0017,"nx":28,"ny":28,"refTime":"2024-07-01T21:00:00:Z","depth":0,"parameterNumber":2,"parameterNumberName":"U-component_of_WINDS"},"data":[0,0,0,0,0,0,0,0,0,0,0,0,0,0,0,0,0,0,0,0,0,0,0,0,0,0,0,0,0,0,0,0,0,0,0,0,0,0,0,0,0,0,0,0,0,0,0,0,0,0,0,0,0,0,0,0,0,0,-0.4947,-0.4947,0,-0.4968,-0.4968,-0.4968,-0.5009,-0.501,-0.501,-0.5011,-0.5031,-0.5031,-0.5031,0,0,0,0,0,0,0,0,0,0,0,0,0,-0.4941,-0.4941,-0.4947,-0.4947,-0.4947,-0.4968,-0.4968,-0.4969,-0.5009,-0.501,-0.5011,-0.5012,-0.5031,-0.5031,-0.5031,0,0,0,0,0,0,0,0,0,0,0,0,0,-0.4951,-0.4941,-0.4947,-0.497,-0.4972,-0.4968,-0.4968,-0.4969,-0.5008,-0.501,-0.5011,-0.5012,-0.5031,-0.5031,-0.5031,-0.5005,0,0,-0.503,-0.5029,0,0,0,0,0,0,0,0,-0.495,-0.4951,-0.4966,-0.4968,-0.4971,-0.4987,-0.4974,-0.4981,-0.5008,-0.4995,-0.5011,-0.5013,-0.5015,-0.5016,-0.5018,-0.5006,-0.5007,-0.503,-0.5029,-0.5029,-0.5029,0,0,0,0,0,0,0,-0.495,-0.495,-0.4955,-0.4966,-0.4969,-0.4979,-0.4982,-0.4975,-0.4998,-0.4996,-0.4999,-0.5001,-0.5017,-0.5018,-0.5018,-0.5007,-0.503,-0.5029,-0.5029,-0.5029,-0.4976,-0.4975,0,0,0,0,0,0,-0.4946,-0.495,-0.4955,-0.4956,-0.4963,-0.4978,-0.4981,-0.4981,-0.4998,-0.5002,-0.5,-0.5003,-0.5018,-0.5019,-0.5019,-0.499,-0.5029,-0.5029,-0.5029,-0.4977,-0.4975,-0.4974,0,0,0,0,0,0,-0.4945,-0.4946,-0.4954,-0.4954,-0.4955,-0.4977,-0.4976,-0.498,-0.4982,-0.5001,-0.5005,-0.4997,-0.5019,-0.502,-0.5008,-0.4992,-0.5029,-0.5028,-0.4978,-0.4976,-0.4975,-0.4932,0,0,0,0,0,0,-0.4945,-0.4945,-0.4936,-0.4953,-0.4955,-0.4942,-0.4975,-0.498,-0.4981,-0.4985,-0.4999,-0.5003,-0.502,-0.5009,-0.5008,-0.4992,-0.5028,-0.498,-0.4978,-0.4975,-0.4935,-0.4929,-0.4924,0,0,0,0,0,-0.4945,-0.4922,-0.4935,-0.4935,-0.4944,-0.4941,-0.4943,-0.4963,-0.498,-0.497,-0.4983,-0.5002,-0.4994,-0.5007,-0.5007,-0.499,-0.4981,-0.4978,-0.4976,-0.4938,-0.493,-0.4924,0,0,0,0,0,0,-0.4901,-0.4925,-0.4939,-0.4922,-0.4929,-0.4948,-0.4937,-0.4954,-0.4957,-0.496,-0.4985,-0.4988,-0.4973,-0.4981,-0.4995,-0.4967,-0.4991,-0.4988,-0.4962,-0.4955,-0.495,-0.4947,-0.5028,0,0,0,0,0,-0.489,-0.4886,-0.4907,-0.489,-0.4893,-0.4914,-0.4914,-0.4929,-0.4938,-0.4941,-0.4953,-0.496,-0.4959,-0.4958,-0.4958,-0.4937,-0.4941,-0.4926,-0.492,-0.4915,-0.4912,-0.4902,-0.4895,-0.4965,-0.4965,-0.4965,0,0,-0.4866,-0.4878,-0.4874,-0.4882,-0.4889,-0.4885,-0.4916,-0.491,-0.4907,-0.494,-0.493,-0.4939,-0.4949,-0.4933,-0.4926,-0.4939,-0.4894,-0.4912,-0.4908,-0.4907,-0.4898,-0.4891,-0.4886,-0.4963,-0.4964,-0.4964,0,0,-0.482,-0.4829,-0.4816,-0.4823,-0.4835,-0.4849,-0.4846,-0.4863,-0.487,-0.4861,-0.4886,-0.4883,-0.488,-0.4886,-0.4889,-0.4847,-0.4865,-0.4847,-0.4817,-0.4807,-0.4801,-0.4796,-0.4781,-0.4775,-0.4844,-0.4844,-0.4844,0,-0.4788,-0.4783,-0.4807,-0.4799,-0.4802,-0.4832,-0.4819,-0.4825,-0.4836,-0.4837,-0.4851,-0.485,-0.4858,-0.4844,-0.4834,-0.4835,-0.4832,-0.4844,-0.48,-0.4795,-0.4791,-0.4777,-0.4771,-0.4841,-0.4842,-0.4842,-0.4842,0,-0.4743,-0.4739,-0.4727,-0.4738,-0.4739,-0.4728,-0.4751,-0.4749,-0.4765,-0.4778,-0.4769,-0.4781,-0.4784,-0.4782,-0.4797,-0.477,-0.4778,-0.4796,-0.482,-0.4782,-0.4769,-0.4763,-0.4838,-0.4839,-0.484,-0.484,0,0,-0.4668,-0.4693,-0.4688,-0.4694,-0.471,-0.4707,-0.4699,-0.4703,-0.4701,-0.4708,-0.4701,-0.4699,-0.4717,-0.472,-0.4736,-0.4727,-0.4693,-0.4746,-0.4747,-0.4735,-0.4664,-0.4649,-0.4642,-0.4706,-0.4705,-0.4704,-0.4662,0,-0.4624,-0.4611,-0.4633,-0.4615,-0.4611,-0.4642,-0.4635,-0.4643,-0.4656,-0.4655,-0.4669,-0.4667,-0.469,-0.4692,-0.4685,-0.4698,-0.4679,-0.4702,-0.4699,-0.4698,-0.4694,-0.4635,-0.4619,-0.458,-0.4658,-0.4657,-0.4656,0,-0.4571,-0.4576,-0.4558,-0.4576,-0.4575,-0.4568,-0.4574,-0.4573,-0.4584,-0.4594,-0.4598,-0.4618,-0.4611,-0.4636,-0.4626,-0.4642,-0.4642,-0.4649,-0.4648,-0.4647,-0.4673,-0.4632,-0.4567,-0.4561,-0.4648,-0.4649,-0.4649,0,-0.4517,-0.452,-0.4509,-0.4513,-0.4534,-0.4528,-0.4537,-0.4549,-0.4551,-0.4556,-0.4557,-0.4562,-0.4564,-0.4567,-0.4587,-0.4603,-0.4575,-0.4601,-0.4582,-0.4581,-0.4573,-0.4573,-0.4506,-0.4575,-0.4575,-0.4575,-0.4576,0,-0.4465,-0.4452,-0.4485,-0.4478,-0.4465,-0.4491,-0.4478,-0.4489,-0.45,-0.4496,-0.4523,-0.4519,-0.4547,-0.4545,-0.4561,-0.4551,-0.4552,-0.4559,-0.4563,-0.4555,-0.4554,-0.4555,-0.4557,-0.4574,-0.4574,-0.4575,-0.4575,0,-0.4401,-0.4423,-0.4414,-0.4435,-0.444,-0.4429,-0.4448,-0.4442,-0.4458,-0.4452,-0.4452,-0.4476,-0.4476,-0.4497,-0.4501,-0.4512,-0.4494,-0.4504,-0.449,-0.4492,-0.4471,-0.4473,-0.4402,-0.4393,-0.4469,-0.4468,-0.4467,0,-0.4366,-0.4357,-0.4378,-0.4378,-0.4385,-0.4384,-0.4386,-0.4412,-0.4413,-0.4426,-0.4419,-0.4421,-0.4424,-0.4423,-0.444,-0.4443,-0.4453,-0.4428,-0.4453,-0.4446,-0.4451,-0.445,-0.4449,-0.4421,-0.442,-0.442,-0.4419,0,-0.4301,-0.4312,-0.4314,-0.4321,-0.4322,-0.4328,-0.4336,-0.4334,-0.4363,-0.4362,-0.4363,-0.4366,-0.4371,-0.4372,-0.4379,-0.4388,-0.4408,-0.4412,-0.4407,-0.4398,-0.439,-0.4393,-0.4474,-0.4412,-0.4413,-0.4414,-0.4414,-0.4414,-0.4249,-0.4243,-0.4257,-0.4259,-0.4268,-0.4274,-0.4271,-0.4286,-0.4287,-0.4294,-0.4309,-0.4307,-0.432,-0.4331,-0.4338,-0.4337,-0.4349,-0.4343,-0.4341,-0.4339,-0.4334,-0.4392,-0.4338,-0.4339,-0.4339,-0.4339,-0.4339,0,-0.4185,-0.4196,-0.4197,-0.4207,-0.4209,-0.423,-0.424,-0.4239,-0.4237,-0.4248,-0.4251,-0.4252,-0.4254,-0.4272,-0.4276,-0.4272,-0.4281,-0.4272,-0.4271,-0.4273,-0.4323,-0.4326,-0.4264,-0.4264,-0.4264,-0.4264,-0.4264,-0.4264,-0.4151,-0.4141,-0.4155,-0.415,-0.4161,-0.416,-0.4164,-0.417,-0.4179,-0.4179,-0.4181,-0.4194,-0.4207,-0.4213,-0.4216,-0.4221,-0.4221,-0.4208,-0.4216,-0.4262,-0.427,-0.4276,-0.4279,-0.4208,-0.4208,-0.4166,-0.4165,-0.4165]},{"header":{"parameterUnit":"m.s-1","parameterCategory":1,"la1":30.2991,"la2":30.254,"lo1":-89.0895,"lo2":-89.0444,"dy":0.0017,"dx":0.0017,"nx":28,"ny":28,"refTime":"2024-07-01T21:00:00:Z","depth":0,"parameterNumber":3,"parameterNumberName":"V-component_of_WINDS"},"data":[0,0,0,0,0,0,0,0,0,0,0,0,0,0,0,0,0,0,0,0,0,0,0,0,0,0,0,0,0,0,0,0,0,0,0,0,0,0,0,0,0,0,0,0,0,0,0,0,0,0,0,0,0,0,0,0,0,0,3.8772,3.8773,0,3.8879,3.8881,3.8882,3.8876,3.8875,3.8873,3.8872,3.8979,3.8984,3.8988,0,0,0,0,0,0,0,0,0,0,0,0,0,3.8559,3.8563,3.8772,3.8773,3.8774,3.8879,3.8881,3.8882,3.8876,3.8875,3.8873,3.8871,3.8978,3.8983,3.8988,0,0,0,0,0,0,0,0,0,0,0,0,0,3.8658,3.8565,3.8771,3.8784,3.8787,3.8879,3.8881,3.8882,3.8877,3.8874,3.8872,3.887,3.8976,3.8983,3.8989,3.9075,0,0,3.9009,3.9011,0,0,0,0,0,0,0,0,3.8652,3.8665,3.8781,3.8784,3.8786,3.8862,3.8845,3.8947,3.8877,3.8842,3.8872,3.8869,3.8942,3.8951,3.8976,3.908,3.9085,3.9009,3.9013,3.9016,3.9018,0,0,0,0,0,0,0,3.8645,3.8661,3.8814,3.8783,3.8786,3.8784,3.8795,3.8864,3.8904,3.8845,3.8845,3.8858,3.8943,3.897,3.8979,3.9086,3.9009,3.9015,3.9019,3.9021,3.9265,3.9268,0,0,0,0,0,0,3.8636,3.8655,3.8811,3.8817,3.8712,3.879,3.8802,3.884,3.8903,3.891,3.886,3.8857,3.896,3.8971,3.8983,3.9087,3.9016,3.9022,3.9026,3.9263,3.9266,3.9269,0,0,0,0,0,0,3.8631,3.865,3.8806,3.8736,3.8756,3.8796,3.8838,3.8843,3.887,3.8914,3.8921,3.8881,3.8959,3.8974,3.9052,3.9091,3.9025,3.9031,3.926,3.9264,3.9267,3.9297,0,0,0,0,0,0,3.8625,3.8648,3.8682,3.8737,3.876,3.8875,3.884,3.8847,3.8882,3.888,3.8935,3.8942,3.8958,3.9043,3.9059,3.9099,3.9036,3.9256,3.9261,3.9266,3.9293,3.9302,3.9309,0,0,0,0,0,3.8618,3.8686,3.8684,3.8702,3.8803,3.8877,3.889,3.8908,3.8885,3.8919,3.8947,3.894,3.9084,3.9051,3.9069,3.9111,3.9254,3.926,3.9266,3.9289,3.93,3.9309,0,0,0,0,0,0,3.8633,3.8693,3.8692,3.8779,3.8823,3.8876,3.8919,3.8918,3.8969,3.8965,3.8984,3.8996,3.9075,3.9101,3.9063,3.9197,3.9166,3.9176,3.9178,3.9188,3.9196,3.9188,3.9041,0,0,0,0,0,3.8647,3.8703,3.8752,3.8824,3.8847,3.8879,3.8912,3.8922,3.8968,3.8986,3.902,3.9064,3.9119,3.9155,3.9208,3.9297,3.9308,3.9335,3.9343,3.9349,3.9357,3.9406,3.9418,3.9288,3.9288,3.9288,0,0,3.8675,3.8715,3.8749,3.8829,3.8864,3.8921,3.8895,3.8956,3.8998,3.8995,3.9072,3.9098,3.9149,3.9233,3.9271,3.9257,3.9396,3.9357,3.9362,3.9366,3.9413,3.9425,3.9436,3.9292,3.9291,3.9291,0,0,3.8756,3.8792,3.8857,3.8893,3.8947,3.8968,3.8983,3.9037,3.9054,3.9131,3.913,3.918,3.9275,3.9311,3.9342,3.9437,3.9433,3.9454,3.9496,3.9543,3.9553,3.9562,3.9596,3.9608,3.9462,3.9462,3.9462,0,3.8785,3.8871,3.889,3.8952,3.8987,3.8987,3.9052,3.9086,3.9154,3.9178,3.9161,3.928,3.9314,3.9406,3.9429,3.9454,3.9472,3.9447,3.955,3.956,3.9568,3.9601,3.9613,3.9464,3.9464,3.9463,3.9463,0,3.8903,3.8963,3.9009,3.9076,3.9116,3.9179,3.9206,3.9244,3.9251,3.9273,3.9352,3.9393,3.9454,3.9477,3.9483,3.957,3.9559,3.9546,3.9515,3.9583,3.9613,3.9626,3.9467,3.9466,3.9466,3.9465,0,0,3.8997,3.9073,3.909,3.912,3.918,3.9226,3.9289,3.935,3.9382,3.9429,3.9482,3.9562,3.955,3.9585,3.9596,3.9637,3.971,3.9619,3.962,3.9634,3.9807,3.9817,3.9831,3.9707,3.971,3.9712,3.9803,0,3.9084,3.9196,3.9215,3.9313,3.9369,3.937,3.9425,3.9467,3.949,3.954,3.9565,3.9622,3.9602,3.9623,3.9664,3.9692,3.9745,3.9686,3.9756,3.9759,3.9743,3.9847,3.9857,3.9941,3.9815,3.9817,3.9819,0,3.92,3.9251,3.9356,3.9408,3.9432,3.9481,3.9538,3.9586,3.9634,3.9647,3.9687,3.9692,3.9757,3.9723,3.9813,3.9772,3.9802,3.982,3.9824,3.9831,3.9792,3.9856,3.9968,3.9981,3.9838,3.9836,3.9835,0,3.9258,3.9352,3.9427,3.9453,3.9516,3.955,3.9578,3.9623,3.9659,3.9708,3.9732,3.9788,3.9819,3.9862,3.9883,3.9856,3.9971,3.9939,3.9984,3.9983,4.0007,4.0005,4.0125,4.0027,4.0027,4.0027,4.0026,0,3.9353,3.9417,3.9454,3.9499,3.9571,3.9591,3.9661,3.9687,3.9728,3.9778,3.9783,3.983,3.9855,3.9906,3.9922,3.9993,4.0007,4.002,4.0023,4.002,4.0018,4.0039,4.0034,4.003,4.0029,4.0029,4.0028,0,3.9429,3.9456,3.9538,3.9591,3.9606,3.9656,3.9701,3.9745,3.9768,3.9832,3.9848,3.9884,3.9944,3.9969,4.0042,4.0053,4.0135,4.0135,4.0119,4.0121,4.0164,4.0159,4.0302,4.0321,4.021,4.0211,4.0212,0,3.9488,3.9537,3.9595,3.963,3.9659,3.9715,3.9751,3.9773,3.981,3.9868,3.9905,3.9966,4.0015,4.0111,4.0143,4.0199,4.02,4.0246,4.0208,4.0202,4.02,4.0197,4.0202,4.0252,4.0253,4.0254,4.0255,0,3.9589,3.9601,3.9653,3.9711,3.9754,3.98,3.9845,3.9873,3.9902,3.9944,4.0006,4.0044,4.0119,4.0179,4.0237,4.0265,4.0265,4.0267,4.028,4.0276,4.0266,4.0272,4.0138,4.0263,4.0262,4.0262,4.0261,4.0261,3.9659,3.9702,3.975,3.9809,3.9845,3.9887,3.9931,3.996,4.0012,4.0076,4.0085,4.0151,4.0197,4.0276,4.0306,4.0357,4.0346,4.0365,4.037,4.0374,4.0377,4.0258,4.0368,4.0368,4.0368,4.0367,4.0367,0,3.976,3.9791,3.9845,3.9908,3.9954,3.9951,4.0,4.0039,4.0097,4.014,4.0189,4.026,4.0318,4.0355,4.0413,4.0447,4.0449,4.0462,4.0459,4.0466,4.0384,4.0367,4.046,4.046,4.046,4.046,4.046,4.046,3.9818,3.9892,3.9909,4.0001,4.0031,4.0097,4.0125,4.0164,4.0199,4.0278,4.0326,4.035,4.0391,4.0452,4.0505,4.0514,4.0535,4.0549,4.0558,4.0481,4.0471,4.0462,4.0446,4.0554,4.0554,4.0635,4.0636,4.0636]}]]